When you browse on this site, cookies collect data to enhance your experience and personalize the content and advertising you see.
Visit our Privacy Policy to learn more. By continuing to use the site, you agree to this use of cookies and data.
  • In Austria
  • List of Countries
  • For 7 days
  • Water Temperature
  • Satellite Maps
  • Weather Map
  • News
  • Weather Widgets
  • user-avatar
    Login

    Hourly Weather Townsville

    Today, 20 March, Wednesday

    Time Temperature Precipitation Wind Pressure Humidity
    00:00 +27°C° 0.1 mm 2 mps 751 mmHg 86%
    01:00 +27°C° 0.1 mm 2 mps 751 mmHg 87%
    02:00 +27°C° 0.1 mm 2 mps 751 mmHg 88%
    03:00 +27°C° 0.1 mm 2 mps 750 mmHg 89%
    04:00 +27°C° 0 mm 2 mps 750 mmHg 90%
    05:00 +27°C° 0.1 mm 2 mps 750 mmHg 90%
    06:00 +27°C° 0.1 mm 2 mps 751 mmHg 90%
    07:00 +27°C° 0.1 mm 2 mps 751 mmHg 89%
    08:00 +29°C° 0.1 mm 3 mps 751 mmHg 82%
    09:00 +30°C° 0.1 mm 3 mps 751 mmHg 76%
    10:00 +33°C° 0 mm 3 mps 752 mmHg 68%
    11:00 +33°C° 0.3 mm 4 mps 751 mmHg 67%
    12:00 +33°C° 0.3 mm 4 mps 751 mmHg 66%
    13:00 +34°C° 0.3 mm 4 mps 751 mmHg 65%
    14:00 +33°C° 1.2 mm 4 mps 750 mmHg 68%
    15:00 +32°C° 1.2 mm 4 mps 750 mmHg 70%
    16:00 +32°C° 0 mm 4 mps 750 mmHg 72%
    17:00 +30°C° 1.1 mm 4 mps 750 mmHg 77%
    18:00 +29°C° 1.1 mm 4 mps 750 mmHg 82%
    19:00 +28°C° 1.1 mm 4 mps 751 mmHg 87%
    20:00 +28°C° 0.4 mm 3 mps 751 mmHg 87%
    21:00 +28°C° 0.4 mm 3 mps 751 mmHg 88%
    22:00 +27°C° 0.4 mm 3 mps 752 mmHg 89%
    23:00 +27°C° 0.1 mm 3 mps 751 mmHg 88%

    Tomorrow, 21 March, Thursday

    Time Temperature Precipitation Wind Pressure Humidity
    00:00 +27°C° 0.1 mm 3 mps 751 mmHg 88%
    01:00 +27°C° 0.1 mm 3 mps 751 mmHg 87%
    02:00 +27°C° 0.4 mm 3 mps 751 mmHg 88%
    03:00 +27°C° 0.4 mm 3 mps 751 mmHg 89%
    04:00 +27°C° 0.4 mm 3 mps 750 mmHg 89%
    05:00 +27°C° 0.5 mm 3 mps 751 mmHg 89%
    06:00 +27°C° 0.5 mm 3 mps 751 mmHg 89%
    07:00 +27°C° 0.5 mm 3 mps 751 mmHg 88%
    08:00 +27°C° 1.5 mm 3 mps 752 mmHg 86%
    09:00 +27°C° 1.5 mm 3 mps 752 mmHg 84%
    10:00 +28°C° 1.5 mm 3 mps 752 mmHg 82%
    11:00 +28°C° 0.4 mm 3 mps 752 mmHg 78%
    12:00 +29°C° 0.4 mm 2 mps 752 mmHg 75%
    13:00 +30°C° 0.4 mm 2 mps 751 mmHg 71%
    14:00 +30°C° 0.4 mm 2 mps 751 mmHg 71%
    15:00 +29°C° 0.4 mm 2 mps 751 mmHg 71%
    16:00 +29°C° 0.4 mm 2 mps 750 mmHg 71%
    17:00 +28°C° 0.1 mm 2 mps 751 mmHg 74%
    18:00 +28°C° 0.1 mm 2 mps 751 mmHg 77%
    19:00 +27°C° 0.1 mm 1 mps 751 mmHg 80%
    20:00 +27°C° 0 mm 2 mps 752 mmHg 81%
    21:00 +27°C° 0 mm 2 mps 752 mmHg 81%
    22:00 +27°C° 0 mm 2 mps 753 mmHg 82%
    23:00 +27°C° 0.1 mm 2 mps 752 mmHg 82%

    Day after tomorrow, 22 March, Friday

    Time Temperature Precipitation Wind Pressure Humidity
    00:00 +27°C° 0.1 mm 2 mps 752 mmHg 82%
    01:00 +27°C° 0.1 mm 2 mps 752 mmHg 82%
    02:00 +27°C° 0.1 mm 2 mps 751 mmHg 83%
    03:00 +27°C° 0.1 mm 2 mps 751 mmHg 83%
    04:00 +26°C° 0.1 mm 2 mps 751 mmHg 84%
    05:00 +27°C° 0.1 mm 2 mps 751 mmHg 84%
    06:00 +27°C° 0.1 mm 2 mps 752 mmHg 84%
    07:00 +27°C° 0.1 mm 2 mps 752 mmHg 84%
    08:00 +28°C° 0.2 mm 3 mps 752 mmHg 80%
    09:00 +29°C° 0.2 mm 3 mps 752 mmHg 77%
    10:00 +30°C° 0.2 mm 4 mps 753 mmHg 73%
    11:00 +30°C° 0.4 mm 4 mps 752 mmHg 71%
    12:00 +32°C° 0.4 mm 4 mps 752 mmHg 69%
    13:00 +32°C° 0.4 mm 4 mps 752 mmHg 67%
    14:00 +30°C° 1.1 mm 4 mps 751 mmHg 71%
    15:00 +29°C° 1.1 mm 4 mps 751 mmHg 75%
    16:00 +28°C° 1.1 mm 4 mps 750 mmHg 79%
    17:00 +28°C° 0.2 mm 3 mps 751 mmHg 81%
    18:00 +27°C° 0.2 mm 3 mps 751 mmHg 84%
    19:00 +27°C° 0.2 mm 3 mps 751 mmHg 86%
    20:00 +27°C° 0.7 mm 3 mps 752 mmHg 87%
    21:00 +27°C° 0.7 mm 3 mps 752 mmHg 87%
    22:00 +27°C° 0.7 mm 3 mps 753 mmHg 88%
    23:00 +27°C° 0.7 mm 3 mps 752 mmHg 88%

    23 March, Saturday

    Time Temperature Precipitation Wind Pressure Humidity
    00:00 +27°C° 0.7 mm 3 mps 752 mmHg 88%
    01:00 +26°C° 0.7 mm 2 mps 751 mmHg 88%
    02:00 +26°C° 0.2 mm 2 mps 751 mmHg 88%
    03:00 +27°C° 0.2 mm 2 mps 751 mmHg 87%
    04:00 +27°C° 0.2 mm 2 mps 750 mmHg 87%
    05:00 +27°C° 0.2 mm 2 mps 751 mmHg 87%
    06:00 +27°C° 0.2 mm 2 mps 751 mmHg 86%
    07:00 +27°C° 0.2 mm 2 mps 751 mmHg 86%
    08:00 +28°C° 0.3 mm 2 mps 752 mmHg 83%
    09:00 +29°C° 0.3 mm 2 mps 752 mmHg 79%
    10:00 +29°C° 0.3 mm 3 mps 753 mmHg 75%
    11:00 +30°C° 0 mm 3 mps 752 mmHg 73%
    12:00 +30°C° 0 mm 3 mps 752 mmHg 71%
    13:00 +31°C° 0 mm 3 mps 752 mmHg 69%
    14:00 +30°C° 0 mm 3 mps 751 mmHg 71%
    15:00 +30°C° 0 mm 3 mps 751 mmHg 73%
    16:00 +29°C° 0 mm 3 mps 750 mmHg 75%
    17:00 +29°C° 0 mm 3 mps 751 mmHg 77%
    18:00 +28°C° 0 mm 3 mps 751 mmHg 80%
    19:00 +28°C° 0 mm 3 mps 752 mmHg 83%
    20:00 +27°C° 0 mm 3 mps 752 mmHg 84%
    21:00 +27°C° 0 mm 2 mps 753 mmHg 85%
    22:00 +27°C° 0 mm 2 mps 753 mmHg 86%
    23:00 +27°C° 0.1 mm 2 mps 753 mmHg 87%

    24 March, Sunday

    Time Temperature Precipitation Wind Pressure Humidity
    00:00 +27°C° 0.1 mm 2 mps 753 mmHg 87%
    01:00 +27°C° 0.1 mm 1 mps 752 mmHg 88%
    02:00 +27°C° 0 mm 1 mps 752 mmHg 88%
    03:00 +27°C° 0 mm 1 mps 752 mmHg 88%
    04:00 +27°C° 0 mm 1 mps 752 mmHg 89%
    05:00 +27°C° 0 mm 1 mps 752 mmHg 88%
    06:00 +27°C° 0 mm 2 mps 752 mmHg 88%
    07:00 +27°C° 0 mm 2 mps 753 mmHg 88%
    08:00 +28°C° 0.1 mm 2 mps 753 mmHg 84%
    09:00 +29°C° 0.1 mm 2 mps 753 mmHg 80%
    10:00 +30°C° 0.1 mm 2 mps 754 mmHg 76%
    11:00 +30°C° 0.5 mm 3 mps 753 mmHg 74%
    12:00 +31°C° 0.4 mm 3 mps 752 mmHg 72%
    13:00 +32°C° 0.4 mm 4 mps 752 mmHg 70%
    14:00 +32°C° 0.1 mm 4 mps 751 mmHg 71%
    15:00 +32°C° 0.1 mm 4 mps 751 mmHg 72%
    16:00 +32°C° 0.1 mm 4 mps 751 mmHg 72%
    17:00 +30°C° 0.2 mm 4 mps 751 mmHg 77%
    18:00 +29°C° 0.2 mm 3 mps 752 mmHg 81%
    19:00 +28°C° 0.2 mm 3 mps 752 mmHg 86%
    20:00 +27°C° 0.3 mm 2 mps 753 mmHg 87%
    21:00 +27°C° 0.3 mm 2 mps 753 mmHg 88%
    22:00 +27°C° 0.3 mm 2 mps 754 mmHg 89%
    23:00 +27°C° 0.2 mm 2 mps 753 mmHg 89%

    25 March, Monday

    Time Temperature Precipitation Wind Pressure Humidity
    00:00 +27°C° 0.2 mm 2 mps 753 mmHg 90%
    01:00 +27°C° 0.2 mm 1 mps 752 mmHg 90%
    02:00 +27°C° 0.1 mm 1 mps 752 mmHg 91%
    03:00 +26°C° 0.1 mm 1 mps 752 mmHg 92%
    04:00 +26°C° 0.1 mm 1 mps 752 mmHg 92%
    05:00 +27°C° 0.2 mm 1 mps 752 mmHg 91%
    06:00 +27°C° 0.2 mm 1 mps 753 mmHg 91%
    07:00 +27°C° 0.2 mm 1 mps 753 mmHg 90%
    08:00 +28°C° 0.1 mm 2 mps 753 mmHg 84%
    09:00 +29°C° 0.1 mm 2 mps 753 mmHg 78%
    10:00 +31°C° 0.1 mm 2 mps 753 mmHg 71%
    11:00 +31°C° 0.1 mm 3 mps 753 mmHg 69%
    12:00 +33°C° 0.1 mm 3 mps 752 mmHg 67%
    13:00 +33°C° 0.1 mm 3 mps 752 mmHg 65%
    14:00 +33°C° 0 mm 3 mps 751 mmHg 66%
    15:00 +33°C° 0 mm 4 mps 751 mmHg 68%
    16:00 +32°C° 0 mm 4 mps 751 mmHg 69%
    17:00 +30°C° 0 mm 3 mps 751 mmHg 74%
    18:00 +29°C° 0 mm 3 mps 752 mmHg 79%
    19:00 +28°C° 0 mm 2 mps 752 mmHg 84%
    20:00 +28°C° 0 mm 2 mps 753 mmHg 85%
    21:00 +28°C° 0 mm 2 mps 753 mmHg 87%
    22:00 +28°C° 0 mm 2 mps 753 mmHg 88%
    23:00 +27°C° 0.1 mm 2 mps 753 mmHg 89%
    Show more